Regional Weather Roundup
Issued by NWS

Home | Current Version | Previous Version | Text Only | Print | Product List | Glossary Off
Versions: 1 2 3 4 5 6 7 8 9 10 11 12 13 14 15 16 17 18 19 20 21 22 23 24 25 26 27

000
ASUS45 KTFX 230610
RWRMT
MONTANA REGIONAL WEATHER ROUNDUP
NATIONAL WEATHER SERVICE GREAT FALLS MT
1200 AM MDT FRI JUN 23 2017

NOTE: "FAIR" INDICATES FEW OR NO CLOUDS BELOW 12000 FEET WITH NO
SIGNIFICANT WEATHER AND/OR OBSTRUCTIONS TO VISIBILITY.

MTZ001>007-043-230700-
WEST OF THE DIVIDE

CITY           SKY/WX    TMP DP  RH WIND       PRES   REMARKS
KALISPELL      CLEAR     49  41  74 CALM      30.19S
MISSOULA       CLEAR     51  37  58 NE3       30.22R
BUTTE          CLEAR     46  30  53 S7        30.31R
MULLAN PASS    CLEAR     47  27  45 NW5       30.30F
ANACONDA         N/A     46  30  53 CALM      30.29S
DEER LODGE       N/A     46  36  66 W5        30.30S
EUREKA           N/A     52  37  58 MISG      30.19R
$$

MTZ008-052>055-230700-
SOUTHWEST MONTANA

CITY           SKY/WX    TMP DP  RH WIND       PRES   REMARKS
BOZEMAN        CLEAR     47  36  65 W6        30.29R
DILLON         CLEAR     47  30  51 E9        30.28R
W YELLOWSTONE  CLEAR     46  27  46 NE9       30.31S
ENNIS          CLEAR     46  32  57 N14       30.33R
THREE FORKS      N/A     48  35  60 CALM      30.25S
$$

MTZ009-010-012-014-046-048-049-054-230700-
EAST SLOPES AND CENTRAL MONTANA

CITY           SKY/WX    TMP DP  RH WIND       PRES   REMARKS
CUT BANK       CLEAR     45  37  73 CALM      30.28R
GREAT FALLS    CLEAR     48  37  65 SE5       30.29S
MALMSTROM AFB  CLEAR     44  39  81 S5        30.28S
HELENA         CLEAR     51  37  58 W7        30.28R
CHOTEAU          N/A     46  37  71 CALM      30.30S
$$

MTZ011-013-016-021-045-047-050-051-230700-
NORTH CENTRAL MONTANA

CITY           SKY/WX    TMP DP  RH WIND       PRES   REMARKS
HAVRE          CLEAR     42  35  76 CALM      30.24S
LEWISTOWN      CLOUDY    43  37  79 SW10      30.29R
N BAR RANCH      N/A     48  34  57 W15       30.29R
CHINOOK          N/A     43  37  81 W5        30.23R
FORT BENTON      N/A     46  37  71 CALM      30.29S
$$

MTZ017>020-022>027-061-062-230700-
NORTHEAST MONTANA

CITY           SKY/WX    TMP DP  RH WIND       PRES   REMARKS
GLASGOW        PTCLDY    51  43  74 NW9       30.14S
JORDAN           N/A     50  38  63 NW8       30.19R
SIDNEY         CLOUDY    54  46  74 NW17G24   30.08R
WOLF POINT     MOCLDY    53  44  71 W12       30.12S
MALTA          CLEAR     48  39  71 W8        30.19S
PLENTYWOOD       N/A     50  46  87 NW5       30.06R
POPLAR           N/A     52  45  76 W9        30.11R
$$

MTZ028>42-056>058-230700-
SOUTHCENTRAL AND SOUTHEAST MONTANA

CITY           SKY/WX    TMP DP  RH WIND       PRES   REMARKS
BAKER          CLOUDY    51  43  74 NW17G26   30.13R
BILLINGS       MOCLDY    53  35  50 N6        30.28R
LIVINGSTON     CLEAR     44  34  67 N3        30.30R
MILES CITY     CLOUDY    56  41  57 NW13      30.18R
BIG TIMBER     CLEAR     48  34  57 CALM      30.33R
FORSYTH          N/A     54  41  62 W7        30.21S
ROUNDUP          N/A     54  32  43 W5        30.17R
$$

REGIONAL REPORTS...DAKOTAS

CITY           SKY/WX    TMP DP  RH WIND       PRES   REMARKS
WILLISTON      CLOUDY    54  46  74 NW18G24   30.04R
MINOT          CLOUDY    57  49  74 NW28G39   29.89R
DICKINSON      CLOUDY    53  46  77 NW22G32   30.01R
BEACH          CLOUDY    52  45  76 NW23G30   30.12R
CROSBY         CLOUDY    52  48  87 NW16G25   30.01R
TIOGA          CLOUDY    50  50 100 NW24G33   30.00S
WATFORD CITY   CLOUDY    52  48  87 NW18      30.03R
BISMARCK       CLOUDY    60  50  69 NW15G24   29.92R
GRAND FORKS    CLEAR     59  49  69 W12       29.69S
FARGO          PTCLDY    62  44  51 NW15      29.75R
BUFFALO SD       N/A     54  43  66 NW24G37   30.06R
RAPID CITY     MOCLDY    59  34  39 N22G33    30.10R
$$

REGIONAL REPORTS...WYOMING/IDAHO/WASHINGTON

CITY           SKY/WX    TMP DP  RH WIND       PRES   REMARKS
GILLETTE       CLOUDY    55  35  47 N14       30.23R
SHERIDAN       CLOUDY    53  37  54 W13       30.27R
BUFFALO WY     CLOUDY    52  32  46 N24G39    30.27R
CODY           PTCLDY    51  36  56 NW9       30.33R
YELLOWSTONE LA   N/A     43  27  53 CALM      30.36R
IDAHO FALLS    CLEAR     54  39  57 N9        30.17R
SALMON         CLEAR     54  28  37 SE6       30.21S
BOISE          CLEAR     69  32  25 W9        30.09S
SPOKANE        PTCLDY    66  35  31 SW5       30.21R
$$

REGIONAL REPORTS...ALBERTA

CITY           SKY/WX    TMP DP  RH WIND       PRES   REMARKS
EDMONTON       CLEAR     45  39  81 W6        30.20S
CALGARY        MOCLDY    55  34  44 CALM      30.26S
LETHBRIDGE     CLOUDY    50  43  76 S5        30.26S
MEDICINE HAT   CLEAR     43  37  81 W6        30.23R
WATERTON GATE    N/A     39  37  93 NE1         N/A
CARDSTON         N/A     45  37  76 SW1         N/A
MILK RIVER       N/A     41  39  93 W6          N/A
ONEFOUR          N/A     43  36  75 N9          N/A
$$

REGIONAL REPORTS...SASKATCHEWAN

CITY           SKY/WX    TMP DP  RH WIND       PRES   REMARKS
SWIFT CURRENT  CLEAR     43  39  87 NW10      30.14R
REGINA         MOCLDY    50  36  57 NW23G31   30.03R
SASKATOON      PTCLDY    45  39  81 NW12      30.09S
VAL MARIE        N/A     41  37  87 NW5         N/A
ROCKGLEN         N/A     45  39  81 NW13G21     N/A
ASSINIBOIA       N/A     48  41  76 W7          N/A
$$




USA.gov is the U.S. government's official web portal to all federal, state and local government web resources and services.